Temperature
14 14 15 15 13 12 13 14 16 17 17 18 18 17 16 16 17 16 15 16 16 16 16 17 17 17 17 17 17 17 17 17 17 17 17 16 16 16 16 16 16 16 16 16 16 16 15 15 15
13 14 14 14 12 12 13 14 15 16 17 18 17 17 15 15 15 15 15 16 16 16 16 16 17 17 17 17 17 17 17 17 16 16 16 16 16 16 16 16 15 15 16 15 15 15 15 15 15
13 13 14 11 12 12 14 15 15 16 18 17 16 16 15 15 15 15 15 16 16 16 16 16 16 17 17 17 16 16 16 16 16 16 16 16 16 16 16 16 15 15 15 15 15 15 15 15 15
13 13 13 11 12 13 14 15 15 16 17 17 16 14 14 14 15 15 15 16 16 16 16 16 16 16 16 16 16 16 16 16 16 16 16 16 16 16 16 15 15 15 15 15 15 15 15 15 15
12 13 11 11 12 13 14 15 16 15 15 15 15 13 13 14 15 15 15 15 16 16 16 16 16 16 16 16 16 16 16 16 16 16 16 16 16 16 16 15 15 15 15 15 15 15 15 15 15
12 11 10 11 12 14 14 15 15 15 15 15 14 13 13 14 15 15 15 15 15 15 15 15 15 16 16 16 16 16 16 16 16 15 15 15 15 15 15 15 15 15 15 15 15 15 15 15 15
11 9 10 11 12 13 14 15 15 13 14 14 14 13 13 14 14 15 15 15 15 15 15 15 15 15 15 15 15 15 15 15 15 15 15 15 15 15 15 15 15 15 15 15 15 15 15 15 15
12 10 11 11 12 13 14 14 14 14 14 14 15 13 13 13 14 14 15 15 15 15 15 15 15 15 15 15 15 15 15 15 15 15 15 15 15 15 15 15 15 15 15 15 15 15 15 14 14
12 9 10 11 12 12 13 13 14 14 14 14 14 14 14 14 14 14 14 14 14 14 14 15 15 15 15 15 15 15 15 15 15 15 15 15 15 15 15 15 15 15 15 15 15 14 14 14 14
11 9 11 12 12 12 13 13 13 13 12 12 13 13 13 13 14 14 14 14 14 14 14 14 14 14 14 15 14 14 15 15 15 15 15 15 15 15 15 15 15 15 14 14 14 14 14 14 14
11 10 11 12 13 13 13 13 13 13 11 12 13 13 13 13 13 14 14 14 14 14 14 14 14 14 14 14 14 14 14 14 14 14 14 14 14 14 14 14 14 14 14 14 14 14 14 14 14
10 11 12 12 13 13 13 13 12 12 13 14 14 14 13 13 13 13 13 14 14 14 14 14 14 14 14 14 14 14 14 14 14 14 14 14 14 14 14 14 14 14 14 14 14 14 14 14 13
10 11 11 12 13 12 12 12 12 12 13 13 13 13 13 13 13 13 13 13 13 13 14 14 14 14 14 14 14 14 14 14 14 14 14 14 14 14 14 14 14 13 13 13 13 13 13 13 13
10 10 11 12 12 12 11 11 11 11 13 13 13 13 13 13 13 13 13 13 13 13 13 13 13 13 14 14 14 14 14 14 13 13 13 13 13 13 13 13 13 13 13 13 13 13 13 13 13
11 10 10 11 12 12 12 11 11 12 12 12 12 12 12 13 13 13 13 13 13 13 13 13 13 13 13 13 13 13 13 13 13 13 13 13 13 13 13 13 13 13 13 12 12 12 12 12 12
10 9 9 11 11 12 11 10 11 12 12 12 12 12 12 12 12 12 12 12 12 13 13 13 13 13 13 13 13 13 13 13 13 12 12 12 12 12 12 12 12 12 12 12 12 12 12 12 12
9 9 9 11 11 11 11 10 11 12 12 12 12 12 12 12 12 12 12 12 12 12 12 12 12 12 12 12 12 12 12 12 12 12 12 12 12 12 12 12 12 12 12 12 12 11 11 12 12
9 9 9 10 11 11 10 10 10 12 12 12 12 12 12 12 12 12 12 12 12 12 12 12 12 12 12 12 12 12 12 12 11 11 11 11 11 11 11 11 11 11 11 11 11 11 11 11 11
9 9 9 10 10 10 10 10 10 11 11 11 11 12 12 12 12 11 11 11 11 11 11 11 12 12 12 12 12 11 11 11 11 11 11 11 11 11 11 11 11 11 11 11 10 10 10 10 10
9 9 9 10 10 10 10 10 10 10 10 11 11 11 12 12 11 11 11 11 11 11 11 11 11 11 11 11 11 11 11 11 11 11 10 10 10 10 10 10 10 10 10 10 10 10 10 10 10
9 9 9 9 9 9 10 9 10 10 11 11 11 12 12 12 12 11 11 11 11 11 11 11 11 11 11 11 11 11 10 10 10 10 10 10 10 10 10 10 10 10 10 10 10 9 9 9 9
8 9 9 9 8 7 9 8 9 9 9 9 10 11 11 11 11 11 11 11 11 11 11 10 10 10 10 10 10 10 10 10 10 10 10 10 10 10 10 10 10 10 9 9 9 9 9 9 9
9 9 9 9 8 7 8 7 8 9 10 9 9 11 11 11 11 11 11 11 11 11 11 10 10 10 10 10 10 10 10 10 9 9 9 9 9 9 9 9 9 9 9 9 9 9 9 8 8
9 8 8 6 6 8 8 7 8 8 9 10 9 10 11 11 11 11 11 11 11 10 10 10 10 10 10 9 9 9 9 9 9 9 9 9 9 9 9 9 9 9 9 9 9 8 8 8 8
8 7 6 7 6 7 7 7 7 8 9 10 10 11 11 11 11 11 11 11 10 10 10 10 9 9 9 9 9 9 9 9 8 8 8 8 8 8 8 8 8 8 8 8 8 8 8 8 7
8 7 7 8 7 6 7 7 8 9 9 10 11 11 11 11 11 11 11 11 10 10 10 9 9 9 9 9 9 8 8 8 8 8 8 8 8 8 8 7 7 7 7 7 7 7 7 7 7
8 7 7 6 6 6 6 6 8 9 9 9 10 10 10 10 10 10 10 10 10 10 9 9 9 9 8 8 8 8 8 8 7 7 7 7 7 7 7 7 7 7 7 7 7 7 7 7 7
8 7 5 6 7 7 7 6 7 8 9 8 9 9 10 10 10 10 10 10 10 9 9 9 8 8 8 8 8 8 8 7 7 7 7 7 7 7 7 7 7 7 7 7 6 6 6 6 6
7 7 6 5 5 6 7 7 7 8 8 8 8 10 10 10 10 10 10 10 9 9 9 8 8 8 8 8 8 8 7 7 7 7 7 6 6 6 6 6 6 6 6 6 6 6 6 6 6
7 7 6 6 6 5 4 6 8 8 8 9 9 10 10 10 10 10 9 9 9 9 9 8 8 8 8 7 7 7 7 7 7 6 6 6 6 6 6 6 6 6 6 6 6 6 6 5 5
Wind_Speed
6 6 2 3 4 2 4 4 3 2 2 1 2 6 7 4 3 5 2 4 7 7 9 10 11 11 11 11 11 10 10 9 8 8 8 8 7 7 6 6 6 5 5 5 5 5 5 5 5
3 2 3 3 4 3 4 4 4 3 4 4 4 5 6 4 3 4 2 4 8 8 9 10 12 12 12 11 11 10 9 8 8 7 7 6 6 6 5 5 5 4 4 4 4 3 3 3 3
2 0 3 3 4 7 5 4 5 2 1 2 4 5 5 3 2 2 3 6 8 7 8 10 12 12 11 11 10 9 8 7 7 6 6 5 5 4 4 4 4 4 3 3 3 2 2 2 2
2 2 3 3 6 5 5 4 4 1 3 4 5 5 4 3 0 2 5 8 8 6 8 10 11 11 10 10 9 9 8 7 6 6 5 4 4 4 3 3 3 3 3 2 2 2 1 1 2
2 3 3 2 5 3 3 2 1 2 2 2 4 5 3 4 3 5 7 8 9 6 7 9 10 10 10 9 8 7 7 6 5 5 4 4 3 3 3 3 3 3 2 2 2 2 2 2 3
2 3 4 4 5 2 2 2 2 2 3 2 4 5 3 2 4 5 7 8 8 7 7 8 9 9 9 8 7 6 6 5 5 4 3 3 2 2 2 2 3 3 3 3 3 3 3 3 4
3 4 5 6 4 2 2 1 3 3 3 2 3 5 3 1 2 5 7 8 8 8 7 7 7 7 7 7 6 5 5 4 3 3 3 2 2 1 1 2 2 3 3 4 4 4 4 5 5
3 3 3 4 4 3 1 2 2 3 2 2 3 7 5 4 3 6 7 7 7 6 6 6 6 6 5 5 5 5 4 4 3 2 2 1 1 1 1 1 2 3 3 4 5 5 6 6 7
3 3 3 4 5 3 1 2 2 3 4 4 3 3 5 7 6 7 7 7 6 6 5 5 6 5 4 4 4 4 4 4 3 2 2 2 1 0 1 1 2 3 3 4 5 5 6 7 8
4 3 4 2 4 4 2 2 1 3 4 4 5 5 7 7 7 9 7 6 5 4 3 4 5 5 5 4 4 4 3 4 3 3 2 2 1 1 1 2 2 3 3 4 5 6 6 6 6
3 3 2 1 2 3 3 2 2 5 1 3 7 7 6 6 6 7 6 5 4 3 3 3 4 5 5 4 4 4 4 4 4 4 3 2 2 2 2 2 2 3 3 3 4 5 4 5 5
3 2 1 1 1 2 3 2 3 2 4 4 6 7 6 7 6 6 6 5 4 4 3 3 3 4 4 4 4 4 4 3 3 4 4 3 2 2 2 1 2 2 3 3 3 3 4 5 6
3 2 3 3 5 4 5 4 3 1 2 4 7 7 7 7 6 4 5 5 5 4 3 2 3 3 4 4 4 4 4 3 3 4 4 3 2 1 2 2 2 3 3 3 3 3 4 4 5
3 3 3 4 4 3 5 2 3 2 3 6 7 6 6 6 6 5 5 5 4 3 2 2 3 3 4 3 3 3 3 3 4 4 4 4 2 2 1 2 2 3 3 3 3 3 3 4 4
3 4 5 4 2 1 4 4 0 4 4 6 6 6 5 5 6 6 5 5 4 3 2 2 2 3 3 3 3 3 3 4 4 4 5 5 4 3 2 2 2 3 4 4 3 3 3 3 3
3 4 3 4 2 1 5 1 3 3 6 5 5 5 5 4 4 5 5 4 4 4 3 2 2 3 3 3 3 3 3 4 4 4 5 6 6 4 3 2 2 4 4 3 2 2 2 3 3
4 3 1 2 3 2 3 3 4 3 6 6 5 5 5 4 3 4 4 5 4 3 3 2 2 3 3 3 3 3 3 4 4 4 5 5 6 6 3 2 3 3 2 2 2 2 2 3 4
2 2 1 1 2 2 1 3 4 3 4 6 5 5 5 5 5 5 4 4 4 3 2 2 2 2 2 3 3 3 3 3 4 4 4 5 5 6 4 3 3 3 2 2 2 2 2 2 3
3 3 2 1 2 1 1 3 5 4 4 5 5 6 6 6 4 4 4 4 4 2 1 1 1 1 2 2 2 1 2 2 2 3 4 4 5 5 4 3 3 3 2 2 3 2 3 2 2
4 4 2 2 3 1 1 4 5 4 6 7 8 8 7 5 4 4 4 3 3 2 1 1 1 0 1 0 0 0 1 1 1 2 4 5 5 5 4 4 3 3 3 3 2 2 2 2 2
4 2 1 0 3 4 3 5 4 4 3 3 5 6 6 7 7 6 5 4 3 3 3 2 2 1 0 0 1 1 2 2 2 3 3 3 4 4 4 4 3 3 3 3 3 2 2 2 2
1 2 1 2 3 2 2 2 6 4 3 4 5 5 6 6 6 6 6 5 5 5 3 2 2 1 0 0 1 1 0 1 2 2 2 3 3 3 3 4 3 3 2 3 4 2 2 2 2
1 2 2 2 3 2 2 2 7 3 4 5 6 6 6 6 7 7 6 6 5 4 4 3 2 1 1 0 1 0 1 1 2 2 2 3 3 3 4 3 3 3 2 3 3 3 3 2 2
1 4 5 5 4 1 2 3 6 4 5 4 4 5 5 5 5 5 4 3 3 3 3 3 2 2 2 1 1 1 2 2 2 2 2 2 2 2 3 3 3 3 3 3 3 3 3 3 3
6 5 4 5 4 4 3 2 8 6 5 5 5 5 4 4 4 4 4 4 4 4 4 4 4 3 3 2 2 2 3 3 3 3 3 3 2 2 3 3 3 3 3 3 3 3 3 3 3
2 4 5 3 4 5 4 5 7 5 2 1 2 3 2 3 3 4 5 5 5 5 5 4 4 4 4 3 4 3 4 3 3 3 3 3 3 3 3 3 3 4 4 3 2 2 3 2 2
1 1 4 5 1 2 6 7 7 1 1 1 1 1 1 3 3 4 4 5 5 5 5 6 5 5 5 4 4 4 4 4 4 4 3 3 3 3 3 3 3 4 3 3 2 2 3 2 2
2 3 4 3 2 3 6 5 5 4 3 2 2 2 3 4 4 4 4 5 5 5 5 5 5 6 5 5 4 4 4 4 4 4 4 4 4 3 3 3 4 4 4 3 2 2 3 2 2
1 1 2 3 3 4 3 7 5 5 5 4 4 5 5 5 5 5 4 4 4 4 4 5 5 5 5 5 5 4 4 4 4 4 5 4 4 3 4 4 4 4 4 3 2 3 3 2 3
3 3 4 3 3 3 3 7 5 3 3 3 3 4 4 4 4 4 4 3 3 4 5 5 5 5 6 5 5 5 5 4 5 5 6 5 5 4 4 4 4 4 4 3 3 3 3 3 3
Wind_Direction
307 333 52 66 78 93 220 239 220 152 140 187 80 99 106 99 126 152 163 127 127 137 140 140 134 131 132 129 125 123 122 119 117 116 114 111 109 107 104 105 106 103 97 102 104 104 105 104 107
348 352 64 81 131 175 241 237 215 203 176 146 72 75 80 77 70 103 117 128 128 133 133 134 130 129 132 131 128 126 124 122 121 120 121 119 116 112 110 107 102 98 94 101 107 107 114 115 120
336 115 107 112 160 188 205 220 207 240 26 99 78 51 77 83 69 108 143 132 119 119 126 132 130 126 128 131 129 127 126 124 123 121 119 121 121 122 120 118 111 107 105 109 119 124 124 142 153
67 74 77 129 196 214 201 210 178 141 36 50 103 71 55 7 90 138 131 117 112 109 116 127 126 124 122 124 129 128 127 126 125 126 125 126 126 129 129 128 127 126 127 132 145 157 175 195 212
70 110 120 179 214 228 230 245 173 131 75 57 97 100 65 343 53 106 113 112 113 108 110 122 120 120 118 117 119 127 129 130 129 132 137 135 135 139 145 150 155 161 173 177 188 208 223 239 248
86 106 140 185 210 230 249 248 122 110 103 76 88 106 112 347 73 97 104 106 109 110 103 113 117 116 116 117 116 116 125 130 131 134 142 146 149 156 169 180 185 192 201 209 220 232 243 256 262
129 131 156 168 174 207 256 348 122 122 103 109 121 112 133 50 90 105 99 99 97 97 93 89 97 107 113 113 114 116 117 122 129 131 131 138 144 166 199 212 214 216 218 225 232 240 250 259 265
143 121 135 163 163 209 255 44 63 103 113 60 106 133 159 177 136 102 93 88 85 84 82 78 79 87 99 102 107 103 105 100 97 115 111 107 136 189 205 230 241 239 236 238 243 248 255 263 266
105 90 170 183 172 196 177 80 11 20 85 47 43 126 147 139 121 102 94 82 75 71 69 70 67 65 75 93 86 85 90 80 71 64 98 89 40 320 238 259 265 257 257 256 256 259 262 268 269
101 147 200 198 182 172 135 108 124 52 46 62 61 71 110 118 113 116 114 109 98 86 70 69 67 60 60 65 63 60 59 53 45 35 34 28 17 335 301 278 280 283 276 275 274 273 272 270 274
124 166 191 332 187 152 118 81 79 115 85 178 147 139 131 118 110 118 121 120 119 111 82 62 66 62 58 52 53 52 48 43 38 33 23 21 17 7 356 343 315 307 302 303 295 287 279 270 270
100 32 61 305 147 106 113 101 60 102 200 192 159 144 138 130 129 133 131 125 113 101 85 64 58 58 53 53 47 52 47 38 31 23 25 38 31 19 5 340 313 307 296 293 291 280 277 274 272
85 62 27 59 65 79 79 80 93 353 171 134 126 123 133 135 134 128 126 120 112 102 87 65 62 62 55 53 41 43 39 34 23 17 15 29 43 9 6 345 329 309 301 290 285 283 277 274 275
127 82 24 25 50 43 83 49 84 237 155 129 130 136 143 143 142 132 125 121 119 115 99 69 63 61 63 63 53 42 33 28 24 18 7 9 20 19 3 352 342 328 313 298 288 283 278 274 272
94 58 19 16 45 78 91 31 204 206 148 138 144 145 145 146 140 144 146 141 137 130 112 89 84 63 59 54 45 40 33 37 29 17 12 11 14 17 18 359 337 327 323 319 314 307 304 299 297
60 50 41 345 22 82 107 190 244 188 143 152 156 151 147 153 151 148 142 133 131 124 107 68 66 61 54 53 41 35 33 38 28 21 21 20 19 23 28 12 332 330 335 338 323 318 315 310 304
45 78 96 336 1 57 114 211 247 190 158 170 172 168 161 158 157 155 147 140 132 127 120 88 63 55 42 47 46 44 41 36 27 25 26 20 14 12 15 8 343 340 347 341 322 329 310 301 300
150 128 134 213 328 64 101 244 256 220 176 183 182 181 180 179 187 171 158 148 133 118 114 109 74 50 48 47 42 34 31 22 23 23 17 15 8 5 6 359 348 352 339 326 317 307 306 290 289
138 122 106 269 316 68 201 259 257 242 203 202 198 194 196 199 196 171 164 157 135 118 106 108 95 49 47 40 42 31 358 346 1 9 6 8 8 4 7 360 345 345 328 313 313 306 301 303 306
86 86 51 353 359 48 322 284 267 239 216 206 198 197 196 194 187 188 178 163 156 157 167 170 154 114 54 40 146 201 239 295 317 346 359 5 5 359 357 359 337 337 329 324 320 311 296 289 307
44 108 168 275 358 27 29 330 291 270 242 216 203 197 195 193 195 198 191 186 177 185 196 200 209 202 240 11 46 33 28 6 2 356 349 349 356 357 354 349 343 334 329 315 304 292 270 278 286
36 324 96 72 69 337 58 287 286 275 263 236 221 207 201 198 191 191 191 192 198 208 204 210 213 207 210 98 89 83 64 275 281 305 314 325 344 348 351 347 343 334 327 318 310 305 278 256 270
192 322 45 69 90 20 17 150 285 305 254 248 228 220 211 201 190 192 196 198 199 195 190 206 209 223 225 162 159 158 257 254 279 304 318 327 333 344 349 346 344 334 322 310 310 310 294 264 251
63 44 50 49 65 7 261 175 277 255 239 240 225 215 215 206 197 198 200 187 186 183 192 204 206 232 233 218 221 217 241 259 283 297 302 313 316 326 337 340 335 322 314 303 301 298 295 283 269
49 70 38 11 8 261 286 210 253 261 248 216 206 206 210 203 194 193 191 192 197 200 208 210 211 232 237 230 238 237 240 241 247 264 268 281 295 300 309 322 321 314 303 302 302 298 295 290 274
9 116 145 187 230 282 318 246 258 283 287 218 181 178 183 193 201 205 207 204 206 212 213 210 215 230 233 231 240 244 243 239 244 247 247 255 262 269 283 298 301 299 300 307 305 294 291 291 277
86 100 156 133 149 280 281 285 302 305 12 48 93 103 235 231 228 227 225 221 220 221 219 214 218 231 235 232 235 243 241 238 241 243 243 251 259 269 275 285 292 294 298 298 298 291 293 293 280
129 138 94 120 164 262 288 275 252 246 232 234 229 235 252 250 243 242 239 236 234 231 230 227 223 229 235 235 233 240 241 239 239 237 244 249 257 263 268 277 281 287 291 293 288 287 288 294 289
164 144 123 132 164 176 261 272 232 213 206 207 237 250 244 238 240 242 246 247 241 240 236 234 236 236 240 238 239 242 245 246 243 240 244 244 251 255 261 266 273 277 279 279 280 281 289 289 296
195 192 151 160 229 191 208 269 272 209 190 192 243 262 262 257 251 247 252 258 253 248 244 240 238 237 238 233 236 243 247 249 249 247 249 246 247 249 252 261 267 270 272 268 264 271 277 270 275
Height
1514 1515 1517 1519 1523 1530 1529 1522 1516 1514 1515 1515 1514 1514 1517 1522 1525 1531 1528 1527 1529 1531 1533 1535 1537 1538 1539 1541 1542 1542 1543 1544 1544 1545 1545 1545 1546 1546 1546 1546 1546 1546 1545 1545 1545 1545 1545 1545 1545
1512 1514 1517 1518 1525 1534 1529 1519 1515 1513 1513 1513 1514 1516 1517 1522 1523 1525 1526 1527 1529 1531 1533 1535 1537 1538 1539 1540 1541 1542 1543 1544 1544 1545 1545 1545 1546 1546 1546 1546 1546 1546 1546 1545 1545 1545 1545 1545 1545
1511 1513 1516 1518 1525 1527 1523 1515 1513 1512 1512 1513 1515 1517 1519 1523 1524 1525 1526 1527 1530 1532 1533 1535 1537 1538 1539 1540 1541 1542 1543 1543 1544 1544 1545 1545 1545 1545 1546 1546 1546 1545 1545 1545 1545 1545 1545 1545 1545
1511 1514 1515 1520 1521 1518 1514 1512 1511 1511 1512 1513 1514 1519 1521 1524 1525 1525 1526 1528 1530 1531 1533 1535 1536 1537 1539 1539 1540 1541 1542 1543 1543 1544 1544 1545 1545 1545 1545 1545 1545 1545 1545 1545 1545 1545 1545 1545 1545
1510 1511 1516 1521 1517 1514 1511 1510 1510 1511 1512 1514 1514 1519 1522 1524 1525 1526 1527 1529 1530 1531 1533 1535 1536 1537 1538 1539 1540 1541 1541 1542 1543 1543 1544 1544 1544 1544 1544 1544 1544 1544 1544 1544 1544 1544 1544 1544 1544
1509 1510 1519 1521 1516 1511 1510 1510 1510 1511 1513 1514 1515 1519 1523 1525 1525 1526 1527 1529 1530 1531 1533 1534 1536 1537 1538 1538 1539 1540 1541 1541 1542 1542 1543 1543 1543 1543 1543 1543 1543 1543 1543 1543 1543 1543 1543 1543 1543
1509 1511 1515 1516 1516 1513 1510 1510 1510 1511 1512 1515 1516 1519 1522 1525 1526 1527 1528 1529 1530 1532 1533 1534 1535 1536 1537 1538 1538 1539 1539 1540 1541 1541 1542 1542 1542 1542 1542 1542 1542 1542 1542 1542 1542 1542 1542 1542 1542
1507 1510 1513 1515 1514 1513 1510 1510 1511 1511 1513 1515 1516 1517 1521 1524 1526 1527 1528 1529 1530 1532 1533 1534 1535 1536 1536 1537 1537 1538 1538 1539 1539 1540 1540 1540 1540 1541 1541 1540 1540 1540 1540 1540 1540 1540 1540 1540 1540
1507 1513 1515 1513 1512 1512 1509 1510 1512 1512 1512 1514 1515 1517 1519 1522 1524 1526 1527 1528 1530 1531 1532 1533 1534 1534 1535 1536 1536 1537 1537 1538 1538 1538 1539 1539 1539 1539 1539 1539 1539 1539 1538 1538 1538 1538 1538 1538 1538
1507 1514 1511 1508 1508 1508 1509 1510 1511 1513 1513 1515 1516 1518 1520 1522 1524 1525 1526 1527 1529 1530 1532 1533 1533 1533 1534 1535 1535 1535 1536 1536 1537 1537 1537 1537 1537 1537 1537 1537 1537 1537 1536 1536 1536 1536 1536 1535 1535
1506 1510 1508 1507 1507 1507 1508 1510 1511 1513 1515 1515 1515 1518 1520 1521 1522 1524 1526 1527 1529 1530 1531 1532 1533 1533 1533 1533 1534 1534 1535 1535 1535 1535 1535 1535 1535 1535 1535 1535 1535 1534 1534 1534 1534 1533 1533 1533 1533
1507 1507 1506 1507 1507 1507 1508 1510 1512 1512 1514 1515 1516 1518 1520 1521 1522 1524 1526 1527 1528 1530 1530 1531 1532 1532 1532 1533 1533 1533 1533 1533 1533 1533 1533 1533 1533 1533 1532 1532 1532 1532 1532 1531 1531 1531 1531 1531 1530
1507 1508 1508 1507 1506 1507 1508 1510 1512 1513 1514 1515 1517 1519 1520 1522 1523 1525 1526 1528 1528 1529 1530 1530 1530 1531 1531 1531 1531 1531 1532 1531 1531 1531 1531 1531 1531 1530 1530 1530 1530 1529 1529 1529 1528 1528 1528 1528 1527
1508 1508 1509 1508 1508 1509 1510 1512 1514 1514 1515 1516 1518 1519 1521 1522 1523 1525 1526 1527 1528 1529 1529 1529 1530 1530 1530 1530 1530 1530 1530 1530 1529 1529 1529 1529 1528 1528 1527 1527 1527 1527 1526 1526 1526 1525 1525 1524 1524
1509 1511 1511 1511 1510 1512 1512 1516 1515 1515 1515 1516 1518 1520 1521 1523 1524 1525 1526 1527 1528 1528 1529 1529 1529 1529 1529 1529 1529 1528 1528 1528 1527 1527 1527 1526 1526 1526 1525 1525 1524 1524 1524 1523 1523 1522 1522 1521 1521
1511 1516 1518 1514 1512 1513 1516 1521 1516 1515 1515 1516 1518 1520 1521 1523 1524 1525 1526 1527 1527 1528 1528 1528 1528 1528 1528 1527 1527 1527 1526 1526 1526 1525 1525 1525 1524 1524 1523 1522 1522 1521 1521 1520 1520 1519 1519 1518 1517
1518 1522 1521 1517 1513 1513 1516 1519 1515 1516 1516 1517 1518 1519 1521 1522 1523 1524 1525 1526 1526 1527 1527 1527 1527 1527 1527 1526 1526 1525 1525 1524 1524 1524 1523 1522 1522 1521 1521 1520 1519 1519 1518 1517 1517 1516 1515 1515 1514
1522 1523 1521 1520 1516 1515 1517 1518 1515 1515 1516 1516 1518 1519 1520 1521 1522 1523 1524 1525 1526 1526 1526 1526 1526 1526 1526 1525 1525 1524 1523 1523 1522 1522 1521 1520 1520 1519 1518 1518 1517 1516 1515 1514 1513 1513 1512 1511 1511
1517 1520 1521 1519 1517 1517 1519 1518 1516 1514 1515 1516 1517 1518 1519 1520 1522 1523 1524 1524 1524 1525 1525 1525 1525 1525 1524 1524 1523 1522 1522 1521 1520 1520 1519 1518 1517 1517 1516 1515 1514 1513 1512 1511 1511 1510 1509 1508 1508
1518 1521 1523 1520 1518 1519 1520 1519 1516 1514 1513 1513 1514 1515 1517 1518 1520 1521 1522 1522 1523 1523 1524 1523 1524 1523 1523 1522 1522 1521 1520 1519 1519 1518 1517 1516 1515 1515 1513 1512 1512 1511 1510 1509 1508 1507 1506 1505 1505
1522 1524 1523 1523 1521 1520 1522 1522 1517 1514 1513 1513 1513 1514 1515 1516 1517 1519 1520 1520 1521 1522 1522 1522 1522 1522 1521 1520 1520 1519 1518 1518 1517 1516 1515 1514 1513 1513 1511 1510 1510 1509 1507 1506 1505 1504 1503 1502 1502
1525 1522 1521 1522 1527 1531 1528 1534 1520 1516 1513 1512 1511 1512 1513 1514 1515 1517 1518 1518 1519 1520 1520 1520 1520 1520 1519 1518 1518 1517 1516 1515 1515 1514 1513 1512 1511 1510 1509 1508 1507 1506 1505 1503 1502 1501 1500 1499 1498
1524 1522 1522 1524 1528 1533 1531 1535 1526 1517 1514 1511 1510 1510 1511 1512 1514 1514 1515 1516 1517 1518 1518 1519 1518 1518 1517 1516 1516 1515 1514 1513 1513 1512 1511 1510 1509 1508 1506 1505 1504 1503 1502 1501 1499 1498 1497 1496 1495
1522 1524 1525 1530 1534 1535 1531 1534 1528 1519 1512 1509 1508 1508 1509 1510 1512 1513 1514 1515 1515 1516 1516 1516 1516 1516 1515 1514 1513 1512 1512 1511 1510 1509 1508 1507 1506 1505 1504 1503 1501 1500 1499 1497 1496 1495 1494 1493 1492
1525 1532 1541 1540 1543 1538 1532 1532 1526 1512 1508 1507 1506 1507 1507 1509 1510 1511 1512 1512 1513 1513 1514 1514 1514 1513 1513 1512 1511 1510 1509 1508 1507 1506 1505 1504 1503 1502 1501 1499 1498 1497 1495 1494 1493 1491 1490 1489 1488
1528 1531 1542 1543 1544 1542 1534 1531 1519 1510 1506 1506 1506 1506 1507 1508 1509 1510 1510 1511 1511 1512 1512 1511 1511 1510 1510 1509 1508 1507 1506 1505 1504 1503 1502 1501 1500 1499 1498 1496 1495 1493 1492 1491 1489 1488 1486 1485 1484
1528 1533 1534 1543 1545 1546 1538 1528 1515 1508 1507 1506 1506 1506 1507 1507 1508 1508 1509 1509 1509 1509 1509 1509 1508 1507 1507 1506 1505 1504 1503 1502 1501 1500 1499 1498 1497 1496 1495 1493 1492 1490 1489 1487 1486 1484 1483 1482 1481
1529 1531 1538 1541 1541 1540 1535 1530 1522 1511 1508 1507 1507 1506 1506 1506 1507 1507 1507 1507 1507 1507 1507 1506 1505 1504 1504 1503 1501 1500 1500 1499 1498 1497 1496 1495 1494 1492 1491 1490 1488 1487 1485 1484 1482 1481 1480 1478 1477
1531 1532 1535 1541 1542 1542 1538 1529 1511 1508 1506 1506 1506 1506 1505 1505 1505 1505 1506 1505 1505 1504 1504 1503 1502 1501 1500 1499 1498 1497 1496 1495 1494 1493 1492 1491 1490 1489 1487 1486 1485 1483 1482 1480 1479 1477 1476 1475 1474
1529 1530 1534 1539 1540 1543 1545 1531 1506 1505 1505 1505 1505 1505 1504 1504 1504 1504 1503 1503 1502 1501 1500 1499 1498 1497 1496 1495 1494 1493 1492 1491 1490 1489 1488 1487 1486 1485 1484 1482 1481 1479 1478 1477 1475 1474 1473 1471 1470